Regional Weather Roundup
Issued by NWS

Home | Current Version | Previous Version | Graphics & Text | Print | Product List | Glossary On
Versions: 1 2 3 4 5 6 7 8 9 10 11 12 13 14 15 16 17 18 19 20 21 22 23 24 25 26 27 28 29 30 31 32 33 34 35 36 37 38 39 40 41 42 43 44 45 46 47 48 49 50
000
ASUS43 KFSD 230202
RWRSD

WEATHER ROUNDUP FOR SOUTH DAKOTA
NATIONAL WEATHER SERVICE SIOUX FALLS SD
900 PM CDT FRI MAY 22 2015

NOTE: "FAIR" INDICATES FEW OR NO CLOUDS BELOW 12,000 FEET WITH NO
SIGNIFICANT WEATHER AND/OR OBSTRUCTIONS TO VISIBILITY.


SDZ001>005-009-010-012>017-230300-
NORTHWEST AND NORTH CENTRAL SOUTH DAKOTA

CITY           SKY/WX    TMP DP  RH WIND       PRES   REMARKS
BUFFALO          N/A     58  38  47 SE20      29.99R
FAITH            N/A     57  37  47 SE13      30.09R
MOBRIDGE       MOCLDY    64  40  41 S10       30.08R
$$

SDZ012>016-024>037-041>051-057-063-072>074-230300-
SOUTHWEST AND SOUTH CENTRAL SOUTH DAKOTA

CITY           SKY/WX    TMP DP  RH WIND       PRES   REMARKS
RAPID CTY ARPT CLOUDY    52  41  66 SE10      30.08R
PIERRE         MOCLDY    56  42  59 S14       30.13R
CUSTER         CLOUDY    42  38  85 SE6       30.09R FOG
ELLSWORTH AFB  CLOUDY    51  41  66 SE10      30.07R
PHILIP         CLOUDY    54  42  64 SE12      30.12R
PINE RIDGE     CLOUDY    48  42  80 SE7       30.10R
WINNER         CLOUDY    54  39  57 S16       30.16R
$$

SDZ004>011-016>023-039-040-230300-
NORTHEAST SOUTH DAKOTA

CITY           SKY/WX    TMP DP  RH WIND       PRES   REMARKS
ABERDEEN       CLOUDY    67  41  38 SW13      30.11R
WATERTOWN      CLOUDY    64  42  44 SW6       30.14R
BROOKINGS      CLOUDY    61  41  48 SW18G25   30.18R
$$

SDZ017-020-022-023-036>040-048>070-230300-
SOUTHEAST SOUTH DAKOTA

CITY           SKY/WX    TMP DP  RH WIND       PRES   REMARKS
SIOUX FALLS    CLOUDY    59  42  53 SW9       30.19R
HURON          CLOUDY    59  42  53 SW16G23   30.17R
CHAMBERLAIN    CLOUDY    53  40  61 S9        30.16S
MITCHELL       MOCLDY    58  43  57 S7        30.18S
YANKTON        CLOUDY    61  37  41 S16       30.15S
$$

ABBREVIATIONS USED IN REMARKS
   TC - TEMPERATURE IN CELSIUS
  WCI - WIND CHILL INDEX
   HX - HEAT INDEX
  VSB - VISIBILITY



USA.gov is the U.S. government's official web portal to all federal, state and local government web resources and services.